EW6920 Weather Reports


Display with metric or nautical units.
time (UTC)temp
F
wind
direction
speed
MPH
gust
MPH
rain 1hr
in
rain 24hr
in
rain mn
in
humidity
%
barometer
mb
20240304085528 33 145 4.0 6.0 0.00 0.24 0.00 84 1007.1
20240304085032 33 170 2.0 7.0 0.00 0.24 0.00 83 1007.2
20240304084537 33 165 4.0 7.0 0.00 0.24 0.00 82 1007.5
20240304084031 33 171 4.0 8.0 0.00 0.24 0.00 82 1007.6
20240304083528 33 182 4.0 8.0 0.00 0.24 0.00 82 1007.7
20240304083033 33 184 5.0 9.0 0.00 0.24 0.00 82 1007.6
20240304082533 34 192 4.0 9.0 0.00 0.24 0.00 82 1007.7
20240304082032 34 192 6.0 9.0 0.00 0.24 0.00 82 1007.6
20240304081534 34 188 6.0 9.0 0.00 0.24 0.00 81 1007.7
20240304081029 34 182 4.0 8.0 0.00 0.24 0.00 81 1007.6
20240304080531 34 198 4.0 8.0 0.00 0.24 0.00 81 1007.6
20240304080039 34 188 5.0 8.0 0.00 0.24 0.00 81 1007.6
20240304075531 34 200 6.0 8.0 0.00 0.24 0.00 80 1007.8
20240304075126 34 186 5.0 8.0 0.00 0.24 0.00 80 1007.7
20240304074534 34 188 4.0 7.0 0.00 0.24 0.00 80 1007.8
20240304074032 34 174 4.0 7.0 0.00 0.24 0.00 80 1007.6
20240304073533 34 196 4.0 8.0 0.00 0.24 0.00 80 1007.6
20240304073036 34 189 4.0 8.0 0.00 0.24 0.00 80 1007.5
20240304072528 34 196 5.0 8.0 0.00 0.24 0.00 80 1007.3
20240304072034 35 215 5.0 9.0 0.00 0.24 0.00 80 1007.3
20240304071534 35 195 5.0 9.0 0.00 0.24 0.00 80 1006.9
20240304071031 35 189 5.0 8.0 0.00 0.24 0.00 79 1006.8
20240304070528 35 217 5.0 10.0 0.00 0.24 0.00 80 1006.7
20240304070036 35 217 6.0 10.0 0.00 0.24 0.00 79 1006.6
20240304065531 35 209 7.0 10.0 0.00 0.24 0.00 79 1006.6
20240304065033 36 195 7.0 11.0 0.00 0.24 0.00 80 1006.6
20240304064534 36 223 7.0 15.0 0.00 0.24 0.00 80 1006.7
20240304064032 36 215 8.0 15.0 0.00 0.24 0.00 81 1006.5
20240304063532 36 246 7.0 12.0 0.00 0.24 0.00 82 1006.3
20240304063034 36 202 4.0 9.0 0.00 0.24 0.00 83 1006.2
20240304062532 36 202 4.0 6.0 0.00 0.24 0.00 82 1006.2
20240304062031 37 187 4.0 9.0 0.00 0.24 0.00 82 1006.2
20240304061545 37 191 4.0 12.0 0.00 0.24 0.00 81 1005.7
20240304061029 37 211 6.0 12.0 0.00 0.24 0.00 82 1005.4
20240304060535 37 245 6.0 10.0 0.00 0.24 0.00 83 1005.2
20240304060038 37 197 5.0 10.0 0.00 0.24 0.00 83 1005.1
20240304055531 38 223 6.0 15.0 0.00 0.24 0.24 83 1005.0
20240304055031 38 248 8.0 15.0 0.00 0.24 0.24 84 1004.9
20240304054535 38 212 7.0 10.0 0.00 0.24 0.24 84 1004.7
20240304054031 38 211 5.0 9.0 0.00 0.24 0.24 84 1004.6
20240304053528 39 199 4.0 10.0 0.00 0.24 0.24 83 1004.6
20240304053038 39 195 5.0 14.0 0.00 0.24 0.24 83 1004.6
20240304052528 39 219 7.0 15.0 0.00 0.24 0.24 83 1004.5
20240304052031 39 200 8.0 15.0 0.00 0.24 0.24 85 1004.2
20240304051536 40 246 5.0 16.0 0.00 0.24 0.24 84 1004.1
20240304051034 40 229 5.0 16.0 0.00 0.24 0.24 84 1004.1
20240304050531 40 271 7.0 15.0 0.00 0.24 0.24 84 1004.2
20240304050055 41 224 7.0 12.0 0.00 0.24 0.24 83 1004.0
20240304045532 42 191 7.0 12.0 0.00 0.24 0.24 84 1003.7
20240304045032 42 204 7.0 13.0 0.00 0.24 0.24 83 1003.6
20240304044600 43 225 8.0 18.0 0.00 0.24 0.24 83 1003.0
20240304044033 43 255 10.0 18.0 0.00 0.24 0.24 83 1002.9
20240304043532 44 247 11.0 20.0 0.00 0.24 0.24 82 1002.8
20240304043045 44 250 11.0 24.0 0.00 0.24 0.24 83 1002.5
20240304042531 44 244 12.0 24.0 0.00 0.24 0.24 83 1002.5
20240304042031 44 274 11.0 20.0 0.00 0.24 0.24 85 1002.1
20240304041540 44 277 8.0 12.0 0.00 0.24 0.24 84 1002.0
20240304041034 45 271 3.0 12.0 0.00 0.24 0.24 84 1001.3
20240304040531 45 267 8.0 14.0 0.00 0.24 0.24 83 1001.9
20240304040039 46 292 8.0 14.0 0.00 0.24 0.24 83 1001.4
20240304035533 46 260 8.0 19.0 0.00 0.24 0.24 83 1001.1
20240304035034 46 273 13.0 19.0 0.00 0.24 0.24 84 1001.2
20240304034544 46 298 11.0 23.0 0.00 0.24 0.24 84 1001.2
20240304034033 46 263 11.0 24.0 0.00 0.24 0.24 86 1000.8
20240304033531 46 267 14.0 24.0 0.00 0.24 0.24 89 1000.7
20240304033040 45 240 15.0 24.0 0.01 0.24 0.24 92 1000.6
20240304032529 44 253 13.0 23.0 0.01 0.24 0.24 93 1000.5
20240304032029 44 174 5.0 10.0 0.01 0.24 0.24 92 1000.5
20240304031537 44 211 6.0 10.0 0.02 0.24 0.24 91 1000.2
20240304031033 44 190 6.0 9.0 0.02 0.24 0.24 91 999.7
20240304030533 45 197 6.0 13.0 0.03 0.24 0.24 91 999.2
20240304030059 46 205 7.0 16.0 0.04 0.24 0.24 92 999.0
20240304025532 46 175 7.0 16.0 0.05 0.24 0.24 93 998.8
20240304025033 46 161 8.0 12.0 0.05 0.24 0.24 93 998.4
20240304024538 46 183 4.0 12.0 0.06 0.24 0.24 93 998.1
20240304024032 46 148 7.0 12.0 0.07 0.24 0.24 93 997.7
20240304023532 45 158 3.0 11.0 0.08 0.24 0.24 92 997.5
20240304023036 46 69 3.0 10.0 0.09 0.23 0.23 90 997.3
20240304022532 46 192 5.0 10.0 0.10 0.23 0.23 92 997.4
20240304022032 47 219 3.0 10.0 0.12 0.23 0.23 92 997.1
20240304021600 47 129 3.0 10.0 0.13 0.22 0.22 92 997.2
20240304021032 47 141 3.0 8.0 0.16 0.22 0.22 92 997.0
20240304020530 47 166 2.0 8.0 0.17 0.21 0.21 92 996.9
20240304020037 47 130 2.0 8.0 0.19 0.20 0.20 92 996.9
20240304015532 47 150 2.0 7.0 0.19 0.19 0.19 92 996.7
20240304015031 47 129 1.0 7.0 0.19 0.19 0.19 92 996.7
20240304014532 47 148 2.0 8.0 0.18 0.18 0.18 91 996.7
20240304014035 47 118 2.0 9.0 0.17 0.17 0.17 91 996.6
20240304013532 47 105 2.0 9.0 0.15 0.15 0.15 92 996.5
20240304013040 48 102 2.0 17.0 0.14 0.14 0.14 92 996.7
20240304012533 48 116 6.0 20.0 0.13 0.13 0.13 92 997.5
20240304012032 47 178 12.0 20.0 0.11 0.11 0.11 91 997.9
20240304011536 47 153 9.0 32.0 0.08 0.08 0.08 90 997.6
20240304011031 47 163 13.0 32.0 0.06 0.06 0.06 89 997.8
20240304010535 47 14 6.0 24.0 0.04 0.04 0.04 87 997.4
20240304010051 48 148 8.0 24.0 0.01 0.01 0.01 86 997.2
20240304005532 48 153 6.0 19.0 0.00 0.00 0.00 84 996.5
20240304005029 47 161 4.0 12.0 0.00 0.00 0.00 84 996.1
20240304004537 47 167 4.0 13.0 0.00 0.00 0.00 84 996.0
20240304004035 47 119 3.0 13.0 0.00 0.00 0.00 83 996.1
20240304003532 47 151 2.0 9.0 0.00 0.00 0.00 84 996.3
20240304003038 47 165 3.0 10.0 0.00 0.00 0.00 83 996.4
20240304002532 47 49 2.0 13.0 0.00 0.00 0.00 83 996.5
20240304002035 47 27 5.0 13.0 0.00 0.00 0.00 83 996.9
20240304001542 47 127 4.0 10.0 0.00 0.00 0.00 83 997.0
20240304001033 47 152 3.0 14.0 0.00 0.00 0.00 83 997.1
20240304000532 47 111 4.0 14.0 0.00 0.00 0.00 83 997.0
20240304000037 47 161 5.0 13.0 0.00 0.00 0.00 82 997.2
20240303235531 47 141 3.0 13.0 0.00 0.00 0.00 82 997.1
20240303235031 47 120 5.0 13.0 0.00 0.00 0.00 82 997.3
20240303234539 48 107 5.0 13.0 0.00 0.00 0.00 82 997.3
20240303234032 48 144 5.0 10.0 0.00 0.00 0.00 82 997.6
20240303233532 48 114 4.0 10.0 0.00 0.00 0.00 81 997.5
20240303233046 48 130 4.0 10.0 0.00 0.00 0.00 81 997.5
20240303232531 48 148 3.0 11.0 0.00 0.00 0.00 81 997.7
20240303232032 48 161 5.0 11.0 0.00 0.00 0.00 80 998.0
20240303231540 49 111 4.0 16.0 0.00 0.00 0.00 80 998.0
20240303231032 49 142 8.0 17.0 0.00 0.00 0.00 80 997.8
20240303230531 49 113 7.0 20.0 0.00 0.00 0.00 80 997.6
20240303230035 49 148 10.0 23.0 0.00 0.00 0.00 80 997.3
20240303225531 49 196 9.0 23.0 0.00 0.00 0.00 80 997.3
20240303225032 49 74 7.0 20.0 0.00 0.00 0.00 80 996.9
20240303224531 49 157 6.0 21.0 0.00 0.00 0.00 80 996.9
20240303224032 49 31 8.0 22.0 0.00 0.00 0.00 80 996.8
20240303223535 49 177 8.0 22.0 0.00 0.00 0.00 81 996.7
20240303223045 48 169 7.0 20.0 0.00 0.00 0.00 80 996.5
20240303222532 48 119 10.0 20.0 0.00 0.00 0.00 81 996.6
20240303222031 48 167 8.0 20.0 0.00 0.00 0.00 80 996.7
20240303221548 48 94 7.0 21.0 0.00 0.00 0.00 80 996.7
20240303221033 48 132 8.0 24.0 0.00 0.00 0.00 80 996.9
20240303220532 48 119 10.0 24.0 0.00 0.00 0.00 80 997.1
20240303220036 48 169 11.0 25.0 0.00 0.00 0.00 80 997.2
20240303215532 48 144 10.0 30.0 0.00 0.00 0.00 80 997.1
20240303215032 48 142 11.0 33.0 0.00 0.00 0.00 81 997.1
20240303214546 48 153 8.0 33.0 0.00 0.00 0.00 81 997.1
20240303214032 48 169 9.0 23.0 0.00 0.00 0.00 81 996.7
20240303213532 48 138 8.0 20.0 0.00 0.00 0.00 81 996.6
20240303213048 47 146 7.0 23.0 0.00 0.00 0.00 82 996.7
20240303212531 47 122 8.0 23.0 0.00 0.00 0.00 82 996.9
20240303212033 47 150 9.0 24.0 0.00 0.00 0.00 82 996.9
20240303211546 47 172 10.0 24.0 0.00 0.00 0.00 82 996.9
20240303211034 47 157 7.0 24.0 0.00 0.00 0.00 83 997.2
20240303210534 47 103 8.0 24.0 0.00 0.00 0.00 83 997.2
20240303210036 46 131 11.0 24.0 0.00 0.00 0.00 83 997.2
20240303205534 46 161 9.0 24.0 0.00 0.00 0.00 84 997.3
20240303205032 46 158 9.0 21.0 0.00 0.00 0.00 85 997.5
20240303204539 45 197 4.0 17.0 0.00 0.00 0.00 85 997.7
20240303204032 45 163 5.0 16.0 0.00 0.00 0.00 85 997.9
20240303203535 45 85 5.0 15.0 0.00 0.00 0.00 86 998.1
20240303203053 45 82 5.0 17.0 0.00 0.00 0.00 87 998.3
20240303202534 44 164 7.0 17.0 0.00 0.00 0.00 88 998.2
20240303202032 44 141 5.0 16.0 0.00 0.00 0.00 88 998.3
20240303201605 43 117 4.0 15.0 0.00 0.00 0.00 89 998.4
20240303201031 43 36 3.0 12.0 0.00 0.00 0.00 89 998.6
20240303200531 43 77 3.0 13.0 0.00 0.00 0.00 90 998.6
20240303200041 43 142 6.0 13.0 0.00 0.00 0.00 90 998.8
20240303195532 43 200 4.0 10.0 0.00 0.00 0.00 90 999.0
20240303195032 42 118 4.0 10.0 0.00 0.00 0.00 90 999.2
20240303194546 42 169 2.0 12.0 0.00 0.00 0.00 91 999.2
20240303194031 42 141 5.0 19.0 0.00 0.00 0.00 91 999.4
20240303193532 42 240 6.0 22.0 0.00 0.00 0.00 91 999.4
20240303193032 42 200 8.0 22.0 0.00 0.00 0.00 91 999.6
20240303192531 42 139 4.0 16.0 0.00 0.00 0.00 92 999.7
20240303192031 42 92 5.0 16.0 0.00 0.00 0.00 92 1000.1
20240303191536 42 142 6.0 13.0 0.00 0.00 0.00 92 1000.2
20240303191032 41 143 4.0 12.0 0.00 0.00 0.00 92 1000.4
20240303190531 41 181 4.0 16.0 0.00 0.00 0.00 92 1000.6
20240303190055 41 149 4.0 16.0 0.00 0.00 0.00 92 1000.8
20240303185532 41 189 6.0 15.0 0.00 0.00 0.00 92 1001.1
20240303185029 41 146 5.0 15.0 0.00 0.00 0.00 92 1001.2
20240303184538 41 102 4.0 14.0 0.00 0.00 0.00 92 1001.4
20240303184034 41 169 4.0 18.0 0.00 0.00 0.00 92 1001.5
20240303183530 41 164 4.0 18.0 0.00 0.00 0.00 92 1001.5
20240303183038 41 151 6.0 18.0 0.00 0.00 0.00 92 1001.5
20240303182531 41 155 3.0 20.0 0.00 0.00 0.00 92 1001.5
20240303182030 41 105 6.0 20.0 0.00 0.00 0.00 92 1001.6
20240303181534 41 120 3.0 12.0 0.00 0.00 0.00 91 1001.6
20240303181033 41 144 4.0 12.0 0.00 0.00 0.00 91 1002.2
20240303180530 41 171 5.0 11.0 0.00 0.00 0.00 91 1002.4
20240303180035 41 153 3.0 11.0 0.00 0.00 0.00 91 1002.4
20240303175529 41 175 3.0 14.0 0.00 0.00 0.00 91 1002.2
20240303175031 41 128 5.0 14.0 0.00 0.00 0.00 91 1002.3
20240303174538 41 159 4.0 15.0 0.00 0.00 0.00 91 1002.4
20240303174030 41 142 4.0 15.0 0.00 0.00 0.00 91 1002.5
20240303173531 41 90 3.0 11.0 0.00 0.00 0.00 91 1002.7
20240303173048 41 142 2.0 15.0 0.00 0.00 0.00 91 1002.7
20240303172530 41 119 5.0 15.0 0.00 0.00 0.00 91 1002.8
20240303172030 41 165 6.0 15.0 0.00 0.00 0.00 91 1003.0
20240303171546 41 180 2.0 13.0 0.00 0.00 0.00 91 1003.1
20240303171104 41 92 5.0 13.0 0.00 0.00 0.00 90 1003.2
20240303170532 41 163 3.0 15.0 0.00 0.00 0.00 90 1003.2
20240303170036 41 146 7.0 15.0 0.00 0.00 0.00 90 1003.2
20240303165530 41 98 4.0 12.0 0.00 0.00 0.00 90 1003.3
20240303165033 41 98 6.0 14.0 0.00 0.00 0.00 90 1003.2
20240303164537 41 118 6.0 21.0 0.00 0.00 0.00 90 1003.4
20240303164032 41 119 8.0 21.0 0.00 0.00 0.00 90 1003.4
20240303163530 41 157 4.0 16.0 0.00 0.00 0.00 90 1003.4
20240303163036 41 155 5.0 16.0 0.00 0.00 0.00 90 1003.4
20240303162529 41 162 5.0 13.0 0.00 0.00 0.00 91 1003.5
20240303162029 41 119 6.0 13.0 0.00 0.00 0.00 91 1003.6
20240303161535 41 166 4.0 10.0 0.00 0.00 0.00 91 1003.8
20240303161030 40 153 3.0 13.0 0.00 0.00 0.00 91 1003.8
20240303160529 40 153 4.0 13.0 0.00 0.00 0.00 91 1003.9
20240303160043 40 159 5.0 15.0 0.00 0.00 0.00 91 1004.0
20240303155530 40 178 7.0 17.0 0.00 0.00 0.00 90 1004.1
20240303155029 40 157 6.0 17.0 0.00 0.00 0.00 90 1004.2
20240303154538 40 121 6.0 15.0 0.00 0.00 0.00 90 1004.2
20240303154029 40 115 6.0 15.0 0.00 0.00 0.00 90 1004.4
20240303153533 40 167 6.0 15.0 0.00 0.00 0.00 90 1004.4
20240303153041 40 166 6.0 16.0 0.00 0.00 0.00 90 1004.5
20240303152530 40 115 7.0 19.0 0.00 0.00 0.00 90 1004.4
20240303152030 40 169 9.0 19.0 0.00 0.00 0.00 90 1004.6
20240303151550 40 162 9.0 19.0 0.00 0.00 0.00 90 1004.5
20240303151030 40 128 4.0 13.0 0.00 0.00 0.00 91 1004.5
20240303150529 40 155 5.0 13.0 0.00 0.00 0.00 91 1004.2
20240303150037 40 107 3.0 14.0 0.00 0.00 0.00 91 1004.3
20240303145533 40 144 5.0 14.0 0.00 0.00 0.00 91 1004.2
20240303145030 40 135 3.0 8.0 0.00 0.00 0.00 91 1004.2
20240303144534 40 171 2.0 11.0 0.00 0.00 0.00 91 1004.4
20240303144030 40 137 5.0 14.0 0.00 0.00 0.00 91 1004.6
20240303143529 39 111 2.0 14.0 0.00 0.00 0.00 91 1004.6
20240303143039 39 121 6.0 14.0 0.00 0.00 0.00 91 1004.9
20240303142529 39 160 4.0 11.0 0.00 0.00 0.00 91 1005.0
20240303142029 39 144 3.0 10.0 0.00 0.00 0.00 91 1004.8
20240303141536 39 173 3.0 11.0 0.00 0.00 0.00 91 1005.0
20240303141029 39 131 3.0 11.0 0.00 0.00 0.00 91 1005.2
20240303140528 39 190 5.0 14.0 0.00 0.00 0.00 91 1005.4
20240303140035 39 140 2.0 15.0 0.00 0.00 0.00 91 1005.5
20240303135529 39 167 6.0 15.0 0.00 0.00 0.00 91 1005.7
20240303135030 39 164 3.0 15.0 0.00 0.00 0.00 91 1005.6
20240303134540 38 153 5.0 14.0 0.00 0.00 0.00 91 1005.6
20240303134030 38 172 4.0 13.0 0.00 0.00 0.00 90 1005.6
20240303133530 38 69 4.0 12.0 0.00 0.00 0.00 90 1005.6
20240303133035 38 165 4.0 11.0 0.00 0.00 0.00 90 1005.6
20240303132530 38 19 3.0 12.0 0.00 0.00 0.00 90 1005.8
20240303132036 38 205 4.0 12.0 0.00 0.00 0.00 91 1005.9
20240303131542 38 169 3.0 11.0 0.00 0.00 0.00 91 1005.9
20240303131033 38 155 4.0 13.0 0.00 0.00 0.00 91 1005.9
20240303130529 38 134 3.0 13.0 0.00 0.00 0.00 91 1005.9
20240303130041 38 173 4.0 13.0 0.00 0.00 0.00 90 1006.1
20240303125533 37 192 4.0 9.0 0.00 0.00 0.00 90 1006.0
20240303125029 37 82 2.0 7.0 0.00 0.00 0.00 91 1006.0
20240303124536 37 0 1.0 7.0 0.00 0.00 0.00 90 1006.1
20240303124030 37 0 1.0 8.0 0.00 0.00 0.00 90 1006.1
20240303123532 37 150 0.0 8.0 0.00 0.00 0.00 90 1006.1
20240303123046 37 178 3.0 10.0 0.00 0.00 0.00 90 1006.1
20240303122534 37 0 2.0 10.0 0.00 0.00 0.00 90 1006.1
20240303122034 37 0 1.0 8.0 0.00 0.00 0.00 90 1006.3
20240303121535 37 158 2.0 8.0 0.00 0.00 0.00 89 1006.4
20240303121032 37 153 2.0 8.0 0.00 0.00 0.00 89 1006.4
20240303120532 37 169 1.0 5.0 0.00 0.00 0.00 89 1006.4
20240303120035 37 0 0.0 5.0 0.00 0.00 0.00 89 1006.5
20240303115532 37 200 1.0 6.0 0.00 0.00 0.00 89 1006.4
20240303115034 37 0 1.0 8.0 0.00 0.00 0.00 89 1006.7
20240303114531 37 0 1.0 8.0 0.00 0.00 0.00 89 1006.6
20240303114033 37 147 2.0 8.0 0.00 0.00 0.00 89 1006.6
20240303113535 37 192 1.0 7.0 0.00 0.00 0.00 89 1006.7
20240303113032 37 146 0.0 7.0 0.00 0.00 0.00 89 1006.6
20240303112531 37 144 0.0 8.0 0.00 0.00 0.00 89 1006.6
20240303112032 37 110 2.0 8.0 0.00 0.00 0.00 89 1006.8
20240303111536 37 134 1.0 7.0 0.00 0.00 0.00 89 1006.9
20240303111034 37 72 2.0 7.0 0.00 0.00 0.00 89 1006.9
20240303110531 37 59 1.0 6.0 0.00 0.00 0.00 89 1006.9
20240303110053 37 0 1.0 5.0 0.00 0.00 0.00 88 1007.0
20240303105533 37 111 1.0 7.0 0.00 0.00 0.00 89 1007.1
20240303105033 37 93 0.0 7.0 0.00 0.00 0.00 88 1007.0
20240303104540 37 128 2.0 7.0 0.00 0.00 0.00 88 1007.1
20240303104032 37 57 1.0 4.0 0.00 0.00 0.00 88 1007.0
20240303103531 37 143 2.0 4.0 0.00 0.00 0.00 88 1007.1
20240303103035 37 104 0.0 5.0 0.00 0.00 0.00 88 1007.0
20240303102531 37 0 1.0 5.0 0.00 0.00 0.00 88 1007.0
20240303102032 37 190 1.0 5.0 0.00 0.00 0.00 88 1007.0
20240303101536 37 0 0.0 3.0 0.00 0.00 0.00 88 1007.0
20240303101031 37 180 0.0 3.0 0.00 0.00 0.00 88 1007.0
20240303100531 37 104 0.0 4.0 0.00 0.00 0.00 87 1007.0
20240303100036 37 0 1.0 4.0 0.00 0.00 0.00 87 1007.1
20240303095531 37 0 0.0 4.0 0.00 0.00 0.00 87 1007.1
20240303095031 37 0 0.0 3.0 0.00 0.00 0.00 87 1007.1
20240303094557 37 153 0.0 5.0 0.00 0.00 0.00 87 1007.1
20240303094031 37 134 1.0 5.0 0.00 0.00 0.00 87 1007.2
20240303093531 37 44 0.0 2.0 0.00 0.00 0.00 87 1007.2
20240303093033 37 0 0.0 2.0 0.00 0.00 0.00 86 1007.2
20240303092533 38 198 0.0 3.0 0.00 0.00 0.00 86 1007.3
20240303092032 38 0 0.0 3.0 0.00 0.00 0.00 86 1007.4
20240303091542 38 0 0.0 5.0 0.00 0.00 0.00 86 1007.5
20240303091028 38 0 1.0 5.0 0.00 0.00 0.00 86 1007.5
20240303090531 38 0 0.0 5.0 0.00 0.00 0.00 86 1007.6
20240303090046 38 246 1.0 5.0 0.00 0.00 0.00 86 1007.6